This is the latest recevied weather packets stored in our database for station/object N1IJV-10. If no packets are shown the sender has not sent any weather packets the latest 10 day(s).
| Time | Temp. | Humidity | Pressure | Rain* | Wind** | Luminosity | Snow |
|---|---|---|---|---|---|---|---|
| 1777409506 | 18.33° C | 63% | 1012.8 hPa | 0 mm | - | 442 W/m² | - |
| 1777409202 | 17.78° C | 66% | 1012.7 hPa | 0 mm | - | 462 W/m² | - |
| 1777408897 | 17.22° C | 66% | 1012.8 hPa | 0 mm | - | 491 W/m² | - |
| 1777408594 | 17.78° C | 68% | 1012.9 hPa | 0 mm | - | 508 W/m² | - |
| 1777408290 | 16.67° C | 69% | 1012.8 hPa | 0 mm | - | 523 W/m² | - |
| 1777407984 | 17.22° C | 67% | 1013 hPa | 0 mm | - | 540 W/m² | - |
| 1777407682 | 17.78° C | 67% | 1012.7 hPa | 0 mm | - | 200 W/m² | - |
| 1777407381 | 17.22° C | 69% | 1012.9 hPa | 0 mm | - | 532 W/m² | - |
| 1777407077 | 17.22° C | 67% | 1013.2 hPa | 0 mm | - | 557 W/m² | - |
| 1777406772 | 16.67° C | 69% | 1013.2 hPa | 0 mm | - | 563 W/m² | - |
| 1777406467 | 16.67° C | 69% | 1013.2 hPa | 0 mm | - | 568 W/m² | - |
| 1777406162 | 16.67° C | 72% | 1013.3 hPa | 0 mm | - | 569 W/m² | - |
| 1777405857 | 16.67° C | 70% | 1013.1 hPa | 0 mm | - | 695 W/m² | - |
| 1777405554 | 16.67° C | 68% | 1013.2 hPa | 0 mm | - | 737 W/m² | - |
| 1777405251 | 16.67° C | 72% | 1013.2 hPa | 0 mm | - | 547 W/m² | - |
| 1777404950 | 16.11° C | 72% | 1013.3 hPa | 0 mm | - | 297 W/m² | - |
| 1777404646 | 16.11° C | 71% | 1013.6 hPa | 0 mm | - | 589 W/m² | - |
| 1777404342 | 16.67° C | 70% | 1013.6 hPa | 0 mm | - | 619 W/m² | - |
| 1777404039 | 16.67° C | 68% | 1013.6 hPa | 0 mm | - | 578 W/m² | - |
| 1777403734 | 16.67° C | 71% | 1013.6 hPa | 0 mm | - | 604 W/m² | - |
| 1777403432 | 16.11° C | 72% | 1013.7 hPa | 0 mm | - | 677 W/m² | - |
| 1777403127 | 16.11° C | 76% | 1013.7 hPa | 0 mm | - | 803 W/m² | - |
| 1777402823 | 16.11° C | 71% | 1013.6 hPa | 0 mm | - | 792 W/m² | - |
| 1777402520 | 16.11° C | 72% | 1013.8 hPa | 0 mm | - | 697 W/m² | - |
| 1777402217 | 15.56° C | 72% | 1014.1 hPa | 0 mm | - | 284 W/m² | - |
* Rain latest hour (hover to see other rain measurements)
** Current wind speed in m/s (hover to see current wind gust speed)